www.pogodaiklimat.ru

Погода и климат >> Архив погоды >> Бразилия >> Мату-Гросу >> Жуина


ПОГОДА в Жуине

  • Прогноз погоды в Жуине
  • Монитор погоды в Жуине

АРХИВ ПОГОДЫ в Жуине

Время (UTC), дата Ветер
(напр.,м/с)
 
Видим.   Явления Облачность Т
(С)
Тd
(С)
f
(%)
Тe
(С)
Тes
(С)
Комфортность P
(гПа)
Po
(гПа)
Тmin
(С)
Tmax
(С)
R
(мм)
R24
(мм)
S
(см)
22 13.09 штиль 0
{1}
н/о н/о +30.8 +16.5 42 +34 +34 очень
душно
1009.1 968.5
23 13.09 штиль 0
{1}
н/о н/о +28.5 +17.3 51 +33 +33 очень
душно
1010.0 969.0
00 14.09 штиль 0
{1}
н/о н/о +27.0 +17.5 56 +31 +31 душно 1010.7 969.5
01 14.09 штиль 0
{1}
н/о н/о +25.9 +17.7 61 +30 +30 душно 1011.4 970.0
02 14.09 штиль 0
{1}
н/о н/о +25.5 +17.9 63 +30 +30 душно 1011.8 970.4
03 14.09 штиль 0
{1}
н/о н/о +25.1 +18.3 66 +30 +30 душно 1011.7 970.2
04 14.09 штиль 0
{1}
н/о н/о +23.6 +18.1 71 +28 +28 душно 1011.3 969.6
05 14.09 штиль 0 н/о н/о +23.7 +18.4 72 +28 +28 душно 1010.7 969.1
06 14.09 штиль 0
{1}
н/о н/о +23.4 +18.6 74 +30 +30 очень
душно
1010.4 968.7
07 14.09 штиль 0
{3}
н/о н/о +23.4 +18.8 75 +30 +30 очень
душно
1010.9 969.2
08 14.09 штиль 0
{1}
н/о н/о +22.2 +18.4 79 +27 +27 душно 1011.3 969.4
09 14.09 штиль 0
{1}
н/о н/о +21.9 +18.4 81 +27 +27 душно 1011.5 969.6
10 14.09 штиль 0 н/о н/о +21.4 +18.3 83 +26 +26 душно 1012.5 970.5
11 14.09 штиль 0 н/о н/о +22.6 +19.4 82 +29 +29 очень
душно
1013.2 971.3
12 14.09 ЮЗ 1
{1}
н/о н/о +26.1 +20.7 72 +33 +33 очень
душно
1012.9 971.5
13 14.09 ЮЗ 1
{2}
н/о н/о +29.2 +19.8 57 +35 +35 очень
душно
1012.9 971.9
14 14.09 ЮЗ 1
{3}
н/о н/о +31.2 +18.6 47 +36 +36 очень
душно
1012.7 972.0
15 14.09 ЮЗ 1
{3}
н/о н/о +33.9 +18.2 39 +38 +38 очень
душно
1011.9 971.6
16 14.09 ЮЗ 1
{2}
н/о н/о +34.9 +17.1 35 +38 +38 очень
душно
1010.7 970.5
17 14.09 ЮЗ 1
{3}
н/о н/о +35.9 +16.2 31 +38 +38 очень
душно
1009.3 969.3
18 14.09 ЮЗ 1
{3}
н/о н/о +36.7 +15.2 28 +38 +38 очень
душно
1008.0 968.2
19 14.09 ЮЗ 1
{2}
н/о н/о +36.2 +14.6 28 +37 +37 очень
жарко
1007.3 967.4
20 14.09 штиль 0
{2}
н/о н/о +35.8 +15.3 30 +38 +38 очень
душно
1007.0 967.1
21 14.09 штиль 0
{1}
н/о н/о +34.6 +15.6 32 +37 +37 очень
душно
1007.5 967.4
22 14.09 штиль 0
{1}
н/о н/о +32.2 +16.8 40 +36 +36 очень
душно
1008.2 967.8
23 14.09 штиль 0
{1}
н/о н/о +29.7 +18.1 50 +34 +34 очень
душно
1009.4 968.6
00 15.09 штиль 0
{1}
н/о н/о +28.2 +18.6 56 +33 +33 очень
душно
1010.0 969.0
01 15.09 штиль 0
{1}
н/о н/о +27.4 +19.0 60 +33 +33 очень
душно
1010.7 969.6
02 15.09 штиль 0
{1}
н/о н/о +26.3 +19.0 64 +31 +31 душно 1010.6 969.3
03 15.09 штиль 0
{1}
н/о н/о +25.3 +19.0 68 +30 +30 душно 1010.5 969.1
04 15.09 штиль 0
{1}
н/о н/о +25.1 +19.3 70 +30 +30 душно 1010.2 968.8
05 15.09 штиль 0
{1}
н/о н/о +24.8 +19.8 74 +30 +30 душно 1009.9 968.4
06 15.09 штиль 0
{1}
н/о н/о +24.5 +19.9 76 +30 +30 очень
душно
1009.5 968.0
07 15.09 ЮЗ 1
{1}
н/о н/о +24.1 +19.9 77 +29 +29 душно 1009.9 968.3
08 15.09 штиль 0
{1}
н/о н/о +23.9 +19.9 78 +29 +29 душно 1010.0 968.4
09 15.09 штиль 0
{1}
н/о н/о +23.2 +19.7 81 +30 +30 очень
душно
1010.6 968.9
10 15.09 штиль 0
{1}
н/о н/о +22.5 +19.3 82 +28 +28 душно 1011.6 969.8
11 15.09 штиль 0
{1}
н/о н/о +24.0 +20.6 81 +30 +30 очень
душно
1012.4 970.7
12 15.09 ЮЗ 1
{2}
н/о н/о +27.1 +22.0 74 +35 +35 очень
душно
1012.2 971.0
13 15.09 ЮЗ 1
{2}
н/о н/о +30.5 +22.9 64 +40 +40 очень
душно
1012.1 971.3
14 15.09 ЮЗ 1
{3}
н/о н/о +32.5 +22.0 54 +41 +41 опасность
перегрева
1012.0 971.5
15 15.09 ЮЗ 1
{3}
н/о н/о +34.4 +20.5 44 +41 +41 опасность
перегрева
1010.9 970.7
16 15.09 ЮЗ 1
{4}
н/о н/о +35.8 +19.5 39 +41 +41 опасность
перегрева
1009.6 969.6
17 15.09 ЮЗ 1
{3}
н/о н/о +36.3 +18.6 35 +40 +40 очень
душно
1008.2 968.3
18 15.09 ЮЗ 1
{3}
н/о н/о +35.8 +16.9 33 +39 +39 очень
душно
1007.2 967.3
19 15.09 ЮЗ 1
{3}
н/о н/о +36.0 +16.5 32 +39 +39 очень
душно
1006.2 966.4
20 15.09 ЮЗ 1
{2}
н/о н/о +36.0 +17.2 33 +39 +39 очень
душно
1005.8 966.0
21 15.09 ЮЗ 1
{6}
н/о н/о +26.5 +20.0 68 +33 +33 очень
душно
1007.6 966.5 0.8
22 15.09 ЮЗ 1
{3}
н/о н/о +25.5 +19.8 71 +31 +31 очень
душно
1008.3 967.0
23 15.09 штиль 0
{1}
н/о н/о +26.1 +20.4 71 +32 +32 очень
душно
1008.3 967.1
00 16.09 ЮЗ 1
{3}
н/о н/о +27.4 +20.9 68 +34 +34 очень
душно
1009.4 968.3
01 16.09 ЮЗ 2
{5}
н/о н/о +24.8 +20.1 75 +30 +30 душно 1010.8 969.3 0.4
02 16.09 ЮЗ 1
{5}
н/о н/о +25.2 +20.7 76 +31 +31 очень
душно
1011.4 969.9
03 16.09 штиль 0
{2}
н/о н/о +25.1 +20.8 77 +31 +31 очень
душно
1011.5 970.0
04 16.09 штиль 0
{2}
н/о н/о +25.0 +20.8 78 +31 +31 очень
душно
1010.8 969.3
05 16.09 штиль 0
{1}
н/о н/о +24.7 +20.9 79 +31 +31 очень
душно
1010.0 968.5
06 16.09 ЮЗ 1
{1}
н/о н/о +24.3 +20.5 79 +30 +30 очень
душно
1009.4 967.9
07 16.09 штиль 0
{2}
н/о н/о +23.9 +20.4 81 +30 +30 очень
душно
1009.4 967.8
08 16.09 ЮЗ 1
{1}
н/о н/о +23.4 +20.3 83 +31 +31 очень
душно
1009.8 968.2
09 16.09 штиль 0
{1}
н/о н/о +23.1 +20.0 83 +30 +30 очень
душно
1010.2 968.5
10 16.09 штиль 0
{1}
н/о н/о +22.7 +19.9 84 +29 +29 очень
душно
1011.5 969.7
11 16.09 штиль 0
{1}
н/о н/о +23.8 +20.7 83 +30 +30 очень
душно
1012.2 970.5
12 16.09 штиль 0
{1}
н/о н/о +24.7 +21.0 80 +31 +31 очень
душно
1012.4 970.8
13 16.09 штиль 0
{1}
н/о н/о +28.4 +22.4 70 +37 +37 очень
душно
1012.2 971.1
14 16.09 ЮЗ 1
{3}
н/о н/о +31.5 +20.1 51 +38 +38 очень
душно
1011.6 971.0
15 16.09 ЮЗ 1
{4}
н/о н/о +33.1 +19.3 44 +38 +38 очень
душно
1011.1 970.7
16 16.09 ЮЗ 1
{3}
н/о н/о +35.1 +19.6 40 +40 +40 очень
душно
1009.9 969.8
17 16.09 ЮЗ 1
{3}
н/о н/о +35.8 +18.8 37 +40 +40 очень
душно
1008.5 968.5
18 16.09 ЮЗ 1
{4}
н/о н/о +36.3 +17.0 32 +39 +39 очень
душно
1007.4 967.6
19 16.09 ЮЗ 1
{4}
н/о н/о +36.0 +16.3 31 +38 +38 очень
душно
1006.9 967.0
20 16.09 ЮЗ 1
{2}
н/о н/о +35.4 +16.3 32 +38 +38 очень
душно
1006.6 966.7
21 16.09 ЮЗ 1
{2}
н/о н/о +34.0 +16.8 36 +37 +37 очень
душно
1006.6 966.5
22 16.09 штиль 0
{1}
н/о н/о +31.6 +17.8 44 +36 +36 очень
душно
1007.3 966.9
23 16.09 штиль 0
{1}
н/о н/о +29.7 +18.2 50 +34 +34 очень
душно
1008.4 967.7
00 17.09 штиль 0
{1}
н/о н/о +28.2 +18.4 55 +33 +33 очень
душно
1009.2 968.2
01 17.09 штиль 0
{1}
н/о н/о +27.0 +18.8 61 +32 +32 очень
душно
1010.0 968.8
02 17.09 штиль 0
{1}
н/о н/о +26.2 +18.9 64 +31 +31 очень
душно
1010.5 969.2
03 17.09 ЮЗ 1
{1}
н/о н/о +25.7 +19.1 67 +31 +31 очень
душно
1010.8 969.4
04 17.09 ЮЗ 1
{1}
н/о н/о +25.3 +19.1 69 +30 +30 душно 1010.4 969.0
05 17.09 штиль 0
{1}
н/о н/о +25.1 +19.2 70 +30 +30 душно 1009.7 968.3
06 17.09 штиль 0
{1}
н/о н/о +24.8 +19.2 71 +30 +30 душно 1009.6 968.2
07 17.09 штиль 0
{1}
н/о н/о +23.9 +18.9 74 +29 +29 душно 1009.9 968.3
08 17.09 штиль 0
{1}
н/о н/о +24.4 +19.2 73 +29 +29 душно 1010.1 968.6
09 17.09 штиль 0
{2}
н/о н/о +23.7 +19.0 75 +28 +28 душно 1010.7 969.1
10 17.09 штиль 0
{2}
н/о н/о +22.8 +19.0 79 +29 +29 очень
душно
1011.5 969.7
11 17.09 штиль 0
{1}
н/о н/о +24.8 +20.3 76 +31 +31 очень
душно
1011.6 970.1
12 17.09 штиль 0
{1}
н/о н/о +28.9 +22.1 67 +38 +38 очень
душно
1011.5 970.5
13 17.09 ЮЗ 1
{2}
н/о н/о +31.0 +21.6 57 +39 +39 очень
душно
1011.6 970.9
14 17.09 ЮЗ 1
{2}
н/о н/о +33.2 +21.1 49 +41 +41 опасность
перегрева
1010.9 970.5
15 17.09 ЮЗ 1
{3}
н/о н/о +35.0 +19.2 40 +40 +40 очень
душно
1010.3 970.2
16 17.09 ЮЗ 1
{3}
н/о н/о +35.2 +18.1 36 +39 +39 очень
душно
1009.4 969.3
17 17.09 ЮЗ 1
{2}
н/о н/о +35.3 +17.0 34 +38 +38 очень
душно
1007.7 967.7
18 17.09 ЮЗ 1
{2}
н/о н/о +37.0 +16.5 30 +39 +39 очень
душно
1006.0 966.3
19 17.09 ЮЗ 1
{2}
н/о н/о +37.3 +15.5 28 +39 +39 очень
душно
1004.8 965.2
20 17.09 ЮЗ 1
{2}
н/о н/о +36.3 +14.9 28 +38 +38 очень
душно
1004.4 964.7
21 17.09 ЮЗ 1
{3}
н/о н/о +34.5 +15.6 32 +36 +36 душно 1004.9 964.9
22 17.09 ЮЗ 1
{2}
н/о н/о +32.1 +16.4 39 +35 +35 очень
душно
1005.3 965.0
23 17.09 штиль 0
{1}
н/о н/о +30.6 +17.1 44 +34 +34 очень
душно
1005.8 965.3
00 18.09 ЮЗ 1
{1}
н/о н/о +28.9 +18.1 52 +34 +34 очень
душно
1006.9 966.1
01 18.09 штиль 0
{1}
н/о н/о +28.0 +18.7 57 +33 +33 очень
душно
1007.1 966.2
02 18.09 штиль 0
{1}
н/о н/о +27.2 +19.1 61 +32 +32 очень
душно
1007.8 966.8
03 18.09 штиль 0
{1}
н/о н/о +26.6 +19.7 66 +32 +32 очень
душно
1008.2 967.1
04 18.09 штиль 0
{1}
н/о н/о +26.2 +19.9 68 +32 +32 очень
душно
1008.4 967.2
05 18.09 штиль 0
{1}
н/о н/о +25.7 +20.0 71 +32 +32 очень
душно
1008.0 966.7
06 18.09 штиль 0
{1}
н/о н/о +24.8 +20.0 75 +30 +30 душно 1007.7 966.3
07 18.09 штиль 0
{1}
н/о н/о +24.9 +20.1 75 +31 +31 очень
душно
1007.9 966.5
08 18.09 штиль 0
{1}
н/о н/о +24.4 +20.2 77 +30 +30 очень
душно
1008.0 966.6
09 18.09 штиль 0
{1}
н/о н/о +24.2 +20.3 79 +30 +30 очень
душно
1008.9 967.4
10 18.09 штиль 0
{1}
н/о н/о +23.5 +20.1 81 +29 +29 душно 1009.2 967.6
11 18.09 штиль 0
{1}
н/о н/о +25.3 +21.2 78 +32 +32 очень
душно
1010.2 968.8
12 18.09 ЮЗ 1
{3}
н/о н/о +27.7 +22.0 71 +36 +36 очень
душно
1010.2 969.1
13 18.09 ЮЗ 1
{3}
н/о н/о +30.3 +22.6 63 +40 +40 очень
душно
1010.2 969.5
14 18.09 ЮЗ 1
{3}
н/о н/о +32.2 +22.2 56 +41 +41 опасность
перегрева
1009.8 969.3
15 18.09 ЮЗ 1
{3}
н/о н/о +33.7 +21.5 49 +42 +42 опасность
перегрева
1008.9 968.7
16 18.09 ЮЗ 1
{4}
н/о н/о +33.7 +20.3 45 +40 +40 очень
душно
1008.3 968.1
17 18.09 ЮЗ 2
{4}
н/о н/о +35.0 +19.7 41 +41 +41 опасность
перегрева
1006.9 966.9
18 18.09 ЮЗ 2
{4}
н/о н/о +35.6 +19.0 38 +40 +40 очень
душно
1005.6 965.7
19 18.09 ЮЗ 2
{5}
н/о н/о +35.8 +18.9 37 +40 +40 очень
душно
1004.8 965.0
20 18.09 ЮЗ 2
{4}
н/о н/о +34.4 +18.5 39 +39 +39 очень
душно
1004.6 964.6
21 18.09 ЮЗ 1
{4}
н/о н/о +29.7 +19.6 55 +36 +36 очень
душно
1005.3 964.7
22 18.09 штиль 0
{3}
н/о н/о +28.0 +20.0 62 +34 +34 очень
душно
1005.9 965.0
23 18.09 штиль 0
{1}
н/о н/о +26.8 +20.1 67 +33 +33 очень
душно
1006.4 965.4
00 19.09 штиль 0
{1}
н/о н/о +26.7 +20.4 68 +33 +33 очень
душно
1007.3 966.2
01 19.09 штиль 0
{1}
н/о н/о +25.8 +20.4 72 +32 +32 очень
душно
1008.3 967.0
02 19.09 штиль 0
{1}
н/о н/о +25.0 +20.3 75 +31 +31 очень
душно
1008.7 967.3
03 19.09 штиль 0
{1}
н/о н/о +24.7 +20.3 77 +31 +31 очень
душно
1008.9 967.5
04 19.09 штиль 0
{1}
н/о н/о +24.7 +20.4 77 +31 +31 очень
душно
1008.7 967.3
05 19.09 ЮЗ 1
{2}
н/о н/о +25.4 +20.8 76 +32 +32 очень
душно
1007.7 966.4
06 19.09 штиль 0
{2}
н/о н/о +24.3 +20.3 78 +30 +30 очень
душно
1007.5 966.1
07 19.09 штиль 0
{1}
н/о н/о +23.8 +20.1 80 +29 +29 душно 1007.5 966.0
08 19.09 штиль 0
{1}
н/о н/о +23.3 +20.1 82 +30 +30 очень
душно
1007.9 966.3
09 19.09 штиль 0
{1}
н/о н/о +23.1 +20.1 83 +30 +30 очень
душно
1008.3 966.7
10 19.09 штиль 0
{1}
н/о н/о +23.1 +20.2 84 +30 +30 очень
душно
1009.0 967.3
11 19.09 ЮЗ 1
{2}
н/о н/о +25.1 +21.6 81 +32 +32 очень
душно
1009.6 968.2
12 19.09 ЮЗ 2
{3}
н/о н/о +27.8 +22.5 73 +37 +37 очень
душно
1009.8 968.8
13 19.09 ЮЗ 2
{4}
н/о н/о +30.4 +22.9 64 +40 +40 очень
душно
1010.1 969.4
14 19.09 ЮЗ 2
{4}
н/о н/о +32.5 +22.1 54 +41 +41 опасность
перегрева
1009.4 969.0
15 19.09 ЮЗ 3
{5}
н/о н/о +33.8 +20.3 45 +40 +40 очень
душно
1008.6 968.4
16 19.09 ЮЗ 2
{5}
н/о н/о +34.7 +20.0 42 +41 +41 опасность
перегрева
1007.6 967.5
17 19.09 ЮЗ 2
{5}
н/о н/о +35.0 +18.7 38 +39 +39 очень
душно
1006.5 966.5
18 19.09 ЮЗ 3
{5}
н/о н/о +36.0 +18.9 37 +41 +41 опасность
перегрева
1005.3 965.5
19 19.09 ЮЗ 2
{5}
н/о н/о +35.7 +17.6 34 +39 +39 очень
душно
1004.5 964.7
20 19.09 ЮЗ 2
{4}
н/о н/о +34.3 +17.5 37 +38 +38 очень
душно
1004.7 964.7
21 19.09 ЮЗ 1
{5}
н/о н/о +30.0 +18.9 51 +35 +35 очень
душно
1005.7 965.1
22 19.09 ЮЗ 1
{2}
н/о н/о +28.6 +19.8 59 +35 +35 очень
душно
1006.3 965.5
23 19.09 штиль 0
{2}
н/о н/о +27.2 +20.2 66 +34 +34 очень
душно
1006.8 965.8
00 20.09 штиль 0
{1}
н/о н/о +26.9 +20.1 66 +33 +33 очень
душно
1007.7 966.6
01 20.09 штиль 0
{1}
н/о н/о +26.0 +20.3 71 +32 +32 очень
душно
1008.7 967.5
02 20.09 штиль 0
{1}
н/о н/о +25.7 +20.3 72 +32 +32 очень
душно
1009.2 967.9
03 20.09 штиль 0
{1}
н/о н/о +25.3 +20.3 74 +31 +31 очень
душно
1009.4 968.0
04 20.09 ЮЗ 1
{1}
н/о н/о +24.9 +20.4 76 +31 +31 очень
душно
1009.1 967.7
05 20.09 штиль 0
{1}
н/о н/о +24.4 +20.2 77 +30 +30 очень
душно
1009.0 967.5
06 20.09 штиль 0
{1}
н/о н/о +23.9 +20.2 80 +30 +30 очень
душно
1008.9 967.4
07 20.09 штиль 0
{1}
н/о н/о +23.2 +19.9 82 +30 +30 очень
душно
1009.2 967.6
08 20.09 штиль 0 н/о н/о +23.6 +20.3 82 +29 +29 душно 1009.6 968.0
09 20.09 штиль 0
{1}
н/о н/о +23.3 +20.2 83 +31 +31 очень
душно
1010.3 968.6
10 20.09 штиль 0
{1}
н/о н/о +22.9 +20.1 84 +30 +30 очень
душно
1011.0 969.2
11 20.09 штиль 0
{1}
н/о н/о +25.2 +21.8 81 +32 +32 очень
душно
1011.5 970.0
12 20.09 ЮЗ 1
{2}
н/о н/о +28.6 +23.2 73 +39 +39 очень
душно
1011.8 970.8
14 20.09 ЮЗ 2
{3}
н/о н/о +33.6 +20.6 47 +41 +41 опасность
перегрева
1011.5 971.1
15 20.09 ЮЗ 2
{4}
н/о н/о +34.6 +19.5 41 +40 +40 очень
душно
1011.0 970.8
16 20.09 ЮЗ 1
{5}
н/о н/о +36.3 +18.8 36 +41 +41 опасность
перегрева
1009.8 969.9
17 20.09 ЮЗ 2
{4}
н/о н/о +36.3 +17.4 33 +40 +40 очень
душно
1008.8 968.9
18 20.09 ЮЗ 2
{4}
н/о н/о +36.7 +16.6 31 +39 +39 очень
душно
1007.2 967.4
19 20.09 ЮЗ 1
{4}
н/о н/о +36.9 +16.3 30 +39 +39 очень
душно
1006.1 966.4

 

Местоположение метеостанции Жуина (Мату-Гросу, Бразилия): широта -11.38 долгота -58.78 высота над уровнем моря 376 м.

В архиве по умолчанию представлена погода в Жуине за последнюю неделю. Архивные данные за месяц целиком и за предыдущие месяцы, начиная с января 2011 года, Вы можете получить, выбрав интересующий диапазон дат из раскрывающегося списка и нажав кнопку "Ввод!".


*Определитесь, кто Вы:
робот инопланетянин человек

Внимание! Время в таблицах - всемирное. Для получения местного времени необходимо прибавить поправку, которая равна -3 ч.

Смотрите также архив погоды в соседних городах и на ближайших метеорологических станциях:

Погода в Жуаре (Мату-Гросу, Бразилия) (137 км)
Погода в Ново-Мундо (Мату-Гросу, Бразилия) (140 км)
Погода в Котригуасу (Мату-Гросу, Бразилия) (166 км)
Погода в Аракажу (Мату-Гросу, Бразилия) (195 км)
Погода в Вилене (Рондония, Бразилия) (205 км)
Погода в Вилене (Рондония, Бразилия) (212 км)
Погода в Апиакасе (Мату-Гросу, Бразилия) (252 км)
Погода в Нова-Маринге (Мату-Гросу, Бразилия) (259 км)
Погода в Глеба Селеста (Мату-Гросу, Бразилия) (264 км)
Погода в Алта-Флоресте (Мату-Гросу, Бразилия) (265 км)

Пояснения к столбцам:

Ветер - указаны скорость ветра в м/с - средняя за 10 мин, порывы в срок и между сроками (в фигурных скобках) и направление, откуда дует ветер: С - северный, СВ - северо-восточный, В - восточный, ЮВ - юго-восточный, Ю - южный, ЮЗ - юго-западный, З - западный, СЗ - северо-западный.
Видимость - горизонтальная дальность видимости в метрах или километрах. При видимости от 1 до 10 км при отсутствии осадков обычно наблюдается дымка, при ухудшении видимости до 1 км и менее - туман. В сухую погоду видимость может ухудшаться дымом, пылью или мглою.
Явления - указаны атмосферные явления, наблюдавшиеся в срок или в последний час перед сроком; фигурными скобками обозначены явления, наблюдавшиеся между сроками (за 1-3 часа до срока); квадратными скобками обозначены град или гололедные отложения с указанием их диаметра в мм.
Облачность - указаны через наклонную черту общая и нижняя облачность в баллах и высота нижней границы облаков в метрах; квадратными скобками обозначены формы облаков: Ci - перистые, Cs - перисто-слоистые, Cc - перисто-кучевые, Ac - высококучевые, As - высокослоистые, Sc - слоисто-кучевые, Ns - слоисто-дождевые, Cu - кучевые, Cb - кучево-дождевые. Подробнее классификацию облаков см. в Атласе облаков (PDF).
T - Температура воздуха - температура, измеренная на высоте 2 м над землей.
Td - Температура точки росы - температура, при понижении до которой содержащийся в воздухе водяной пар достигнет насыщения.
f - Относительная влажность воздуха - влажноcть воздуха, измеренная на высоте 2 м над землей.
Te - Эффективная температура - температура, которую ощущает одетый по сезону человек в тени. Характеристика душности погоды. При расчете учитывается влияние влажности воздуха и скорости ветра на теплоощущения человека.
Tes - Эффективная температура на солнце - температура, которую ощущает человек, с поправкой на солнечный нагрев. Характеристика знойности погоды. Зависит от высоты солнца над горизонтом, облачности и скорости ветра. Ночью, в пасмурную погоду, а также при ветре 12 м/с и более поправка равна нулю.
P - Атмосферное давление - приведенное к уровню моря атмосферное давление.
Po - Атмосферное давление - измеренное на уровне метеостанции атмосферное давление.
Tmin - Минимальная температура - минимум температуры воздуха на высоте 2 м над землей.
Tmax - Максимальная температура - максимум температуры воздуха на высоте 2 м над землей.
R - Количество осадков - Количество выпавших осадков за период времени, мм. При наведении курсора мыши на число - период времени, за который выпало указанное количество осадков.
R24 - Количество осадков - Количество выпавших осадков за 24 часа, мм.
S - Снежный покров - Высота снежного покрова, см. При наведении курсора мыши на число - состояние снежного покрова и степень покрытия местности в баллах.